Find Starlink 32610

NORAD ID: 61971 Int'l Des: 2024-210 Owner: SPXS Country: US Constellation: starlink operational
LEOCIRCULAR

Current View

Loading 3D Globe...

About Starlink 32610

Starlink 32610 (NORAD 61971) is a starlink constellation satellite (v2 mini) launched Nov 14, 2024 by SPXS of US. It operates in LEO, CIRCULAR orbit with a mass of 730.00 kg.

About Starlink 32610

Description loading...

Upcoming Passes

Passes for default location (London). Set your location on the main map for personalized predictions.

Altitude History

Loading altitude history...

Two-Line Element Set

1 61971U 24210N 26170.47211693 .00007682 00000-0 28831-3 0 9990
2 61971 43.0026 325.2346 0001483 270.2114 89.8568 15.27587666 90487
Epoch: Jun 19, 2026 • Age: 28 hours

Current Status

Altitude 486.4 km
Velocity 7.62 km/s
Sub-Earth Point -18.80°S, 156.65°E
Launch Date Nov 14, 2024
Age 1.5 years
Type internet

Technical Details

Classification Payload
Mass 730.00 kg
Dry Mass 700.00 kg
Total Mass 730.00 kg
Length 0.30 m
Diameter 4.10 m
Span 29.00 m
Shape Box + pan
Manufacturer SPXS
Bus Type Starlink V2M
Phase Status In Orbit
Owner/State SPXS/US

Most Searched